Location: Cape Cod Imaging Station
(41.7417°N, 70.1583°W)
Time: 19:17:45
(UTC-04:00)

Envisat - Visible Passes

Search period start: 20 October 2017 00:00
Search period end: 30 October 2017 00:00
Orbit: 764 x 766 km, 98.2° (Epoch: 20 October)

Date Brightness Start Highest point End Pass type
(mag) Time Alt. Az. Time Alt. Az. Time Alt. Az.
20 Oct 3.9 19:58:34 34° NNE 19:58:34 34° NNE 20:01:49 10° N visible
20 Oct 5.7 21:38:47 15° NW 21:38:47 15° NW 21:40:00 10° NW visible
21 Oct 4.4 19:21:35 21° NE 19:21:35 21° NE 19:24:24 10° NNE visible
21 Oct 4.9 21:01:48 25° NW 21:01:48 25° NW 21:04:08 10° NNW visible
22 Oct 4.9 18:44:36 11° NE 18:44:36 11° NE 18:45:22 10° NE visible
22 Oct 4.2 20:24:49 33° N 20:24:49 33° N 20:27:35 10° N visible
23 Oct 4.2 19:47:50 27° NNE 19:47:50 27° NNE 19:50:34 10° N visible
23 Oct 5.6 21:28:03 16° NW 21:28:03 16° NW 21:29:15 10° NW visible
24 Oct 4.6 19:10:51 17° NE 19:10:51 17° NE 19:12:55 10° NNE visible
24 Oct 4.9 20:51:04 24° NNW 20:51:04 24° NNW 20:53:07 10° NNW visible
25 Oct 4.4 20:14:04 28° N 20:14:04 28° N 20:16:26 10° N visible
26 Oct 4.5 19:37:05 21° NNE 19:37:05 21° NNE 19:39:16 10° N visible
26 Oct 5.5 21:17:18 16° NW 21:17:18 16° NW 21:18:23 10° NNW visible
27 Oct 4.9 19:00:05 13° NE 19:00:05 13° NE 19:01:18 10° NNE visible
27 Oct 4.9 20:40:18 22° NNW 20:40:18 22° NNW 20:42:04 10° NNW visible
28 Oct 4.6 20:03:18 23° N 20:03:18 23° N 20:05:15 10° N visible
29 Oct 4.7 19:26:19 17° NNE 19:26:19 17° NNE 19:27:55 10° NNE visible
29 Oct 5.5 21:06:31 15° NNW 21:06:31 15° NNW 21:07:28 10° NNW visible
